Location: Zihuatanejo
(17.6330°N, 101.5500°W)
Time: 10:19:52
(UTC-06:00)

Daily predictions for brighter satellites

Satellite Brightness Start Highest point End
(mag) Time Altitude Azimuth Time Altitude Azimuth Time Altitude Azimuth
Cosmos 1346 Rocket 3.9 19:06:56 10° NNW 19:10:42 49° W 19:14:25 10° S
Meteosat 1 Rocket2 2.7 19:10:29 10° WNW 19:14:07 79° SSW 19:17:58 10° ESE
Cosmos 1812 2.7 19:10:45 10° N 19:14:33 59° E 19:18:19 10° SSE
Cosmos 1633 2.8 19:11:05 10° SSE 19:14:37 48° E 19:18:10 10° NNE
H-II Stage 2 2.2 19:08:55 10° SW 19:15:42 51° SSE 19:18:04 10° E
GEOS 3 Rocket 4.2 19:11:36 10° NNE 19:16:47 61° WNW 19:22:00 10° SW
GPS 2-14 Rocket1 4.2 19:14:38 10° SW 19:17:58 25° SSE 19:21:21 10° ESE
Cosmos 2219 3.7 19:12:41 10° S 19:18:01 41° ESE 19:23:22 10° NE
Cosmos 1461 4.4 19:16:47 10° NNE 19:19:28 17° ENE 19:22:12 10° ESE
Meteor 1-11 Rocket 3.9 19:14:10 10° SSE 19:19:39 51° E 19:25:15 10° NNE
Cosmos 2292 Rocket 3.8 19:15:51 10° S 19:19:53 89° WNW 19:25:20 10° N
GPS 2-18 Rocket1 3.2 19:16:06 10° W 19:19:59 77° N 19:23:49 11° ENE
PSLV R/B 3.5 19:22:31 10° NW 19:25:32 44° NE 19:28:24 11° ESE
Cosmos 1709 Rocket 4.0 19:19:26 10° S 19:25:44 87° E 19:31:58 10° N
Cosmos 1602 3.6 19:25:40 10° S 19:29:29 80° E 19:33:21 10° N
OTV 4 0.4 19:26:48 10° SW 19:29:46 86° NW 19:32:15 14° NE
Cosmos 2360 Rocket 3.6 19:27:55 10° NNE 19:31:31 17° ENE 19:34:02 13° E
Cosmos 1741 Rocket 4.0 19:26:59 10° S 19:32:09 62° ESE 19:37:18 10° NNE
Cosmos 1980 Rocket 3.9 19:27:00 10° NW 19:32:12 38° WSW 19:37:24 10° S
ERBS 3.0 19:31:02 10° NW 19:34:26 58° WSW 19:37:48 10° SSE
Cosmos 1238 Rocket 3.3 19:33:13 10° NNE 19:35:39 22° E 19:38:13 10° SE
Okean 1 Rocket 3.0 19:34:03 10° S 19:38:28 66° E 19:42:54 10° NNE
FUSE 4.4 19:34:56 10° W 19:40:10 53° NNW 19:44:15 16° ENE
Cosmos 44 Rocket 3.7 19:35:43 10° NNW 19:40:20 62° WSW 19:44:55 10° SSE
CZ-3C R/B 1.6 19:34:46 10° W 19:46:24 67° N 19:48:20 24° ENE
Fermi 4.4 19:45:01 10° SW 19:48:49 39° SSE 19:50:33 25° ESE
ASTRO E2 3.8 19:46:07 10° NW 19:49:40 29° NNE 19:51:00 24° NE
CRRES 3.7 19:48:59 10° W 19:51:12 71° S 19:52:42 27° ESE
Helios 1B rocket 2.7 19:51:14 10° NNE 19:55:12 45° E 19:59:10 10° S
Cosmos 44 3.2 19:51:13 10° NNW 19:55:29 69° WSW 19:59:44 10° SSE
OAO 3 Rocket 3.2 19:50:54 10° SW 19:55:49 68° SE 19:58:15 29° ENE
SJ-6B 3.0 19:53:58 10° S 19:58:04 79° W 20:02:04 10° NNW
FengYun 1-2 T 4.1 19:57:53 10° SSE 20:03:17 62° ENE 20:08:40 10° N
Cosmos 1340 2.6 20:01:24 10° N 20:05:10 83° W 20:08:57 10° S
ATLAS CENTAUR R/B 3.3 19:56:09 10° SW 20:05:25 54° WNW 20:08:30 14° NNE
SL-16 R/B 2.7 20:01:23 10° NNW 20:06:57 62° WSW 20:12:32 10° S
Spot 2 Rocket 3.4 20:07:27 10° SSE 20:12:24 59° ENE 20:17:21 10° N
Centaur AC-119 3.3 20:10:03 10° W 20:13:00 56° SSW 20:17:45 22° SE
Meteor 1-5 Rocket 4.2 20:07:12 10° S 20:13:09 84° E 20:19:07 10° N
Meteor 1-29 4.2 20:15:06 29° S 20:15:06 29° S 20:16:54 10° S
Okean 1-7 Rocket 4.3 20:09:30 10° N 20:12:31 36° NE 20:12:31 36° NE
Hubble Space Telescope 1.7 20:11:12 10° W 20:15:04 39° NNW 20:15:59 34° NNE
SL-8 R/B 4.0 20:12:34 10° NW 20:17:20 64° SW 20:20:02 25° SSE
FENGYUN 3A 3.7 20:15:53 10° S 20:21:16 80° WSW 20:26:40 10° NNW
H-2A R/B 1.9 20:20:50 10° WSW 20:23:45 88° SSE 20:26:02 41° ENE
Skynet4D Del rocket 3.9 20:18:31 10° W 20:23:45 54° NNW 20:25:10 41° NNE
HJ-1C 4.4 20:20:32 10° S 20:23:46 45° W 20:27:00 10° NNW
Cosmos 2322 Rocket 3.6 20:18:49 10° NW 20:23:58 39° WSW 20:29:08 10° S
Meteor 1-19 Rocket 4.3 20:19:05 10° N 20:24:49 79° W 20:30:37 10° S
Longmarch 3A Rocket 3.9 20:24:00 10° NNW 20:24:03 10° NNW 20:24:03 10° NNW
GPS 2-12 Rocket1 4.5 20:22:25 10° WSW 20:26:11 27° SSW 20:27:16 24° S
Atlas Centaur 2 2.4 20:20:28 10° SW 20:27:39 59° SSE 20:28:46 51° ESE
ALOS 3.0 20:24:58 10° S 20:29:30 52° W 20:34:03 10° NNW
Resurs 01 Rocket 2.0 20:29:31 10° S 20:33:53 64° W 20:38:15 10° NNW
Cosmos 2322 3.5 20:33:08 10° NNW 20:38:36 72° NE 20:38:36 72° NE
ATLAS 3B CENTAUR R/B 4.3 20:11:17 10° WSW 20:44:27 80° SSE 20:50:14 45° ENE
Meteor 1-23 Rocket 4.2 20:44:02 10° N 20:49:49 84° W 20:50:03 81° SW
Cosmos 2297 Rocket 3.7 20:44:18 10° S 20:46:31 24° S 20:46:31 24° S
Meteor 2-4 Rocket 4.2 20:49:12 10° NNW 20:54:29 55° W 20:59:42 10° S
ATLAS 2A CENTAUR R/B 2.8 20:52:04 10° WNW 20:55:54 63° NNE 20:55:54 63° NNE
Cosmos 2227 Rocket 3.1 21:03:58 10° SSW 21:07:56 43° SW 21:07:56 43° SW
Cosmos 2360 Rocket 3.4 21:10:16 10° NW 21:15:26 38° WSW 21:16:00 37° WSW
CZ-3 Stage 3 4.1 21:25:21 10° WSW 21:57:30 60° NW 21:57:30 60° NW
